Regional Weather Roundup
Issued by NWS

Home | Current Version | Previous Version | Text Only | Print | Product List | Glossary Off
Versions: 1 2 3 4 5 6 7 8 9 10 11 12 13 14 15 16 17 18 19 20 21 22 23 24 25 26 27 28 29 30 31 32 33 34 35 36 37 38 39 40 41 42 43 44 45 46 47 48 49

000
ASUS45 KSLC 260810
RWRUT

UTAH REGIONAL WEATHER ROUNDUP
NATIONAL WEATHER SERVICE SALT LAKE CITY UT
100 AM MST MON JAN 26 2015

UTZ001>011-023>025-260900-

NORTHERN UTAH

CITY           SKY/WX    TMP DP  RH WIND       PRES   REMARKS
BRIGHAM CITY   CLEAR     33  29  86 SW5       30.43S WCI  28
HILL AFB       CLEAR     34  30  86 SE10      30.40F WCI  26
LOGAN          CLEAR     28  26  92 E5        30.42F WCI  23
OGDEN          CLEAR     32  29  88 CALM      30.40F
PROVO AIRPORT  CLEAR     28  25  86 CALM      30.41F
SALT LAKE CITY CLEAR     32  28  85 CALM      30.41F
VERNAL         CLEAR     26  20  77 CALM      30.42S
WENDOVER       CLEAR     30  27  86 CALM      30.41F
HEBER CITY     CLEAR     25  23  93 CALM      30.42S
WEST JORDAN    CLEAR     34  30  86 SW5       30.41F WCI  30

$$

UTZ012>022-026-027-260900-

SOUTHERN/CENTRAL UTAH

CITY           SKY/WX    TMP DP  RH WIND       PRES   REMARKS
BLANDING       CLEAR     40  24  52 S3        30.38R
BRYCE CANYON   CLEAR     25  22  88 W9        30.42S WCI  15
CEDAR CITY     CLEAR     31  26  82 SE5       30.38F WCI  26
DELTA          CLEAR     35  31  86 S7        30.40S WCI  29
MILFORD        CLEAR     28  25  88 CALM      30.40S
MOAB/CYNLANDS  CLEAR     28  23  81 CALM      30.36S
PRICE          CLEAR     34  22  61 N9        30.37S WCI  27
ST GEORGE      SUNNY     48  28  46 E7        30.30F
KANAB          CLEAR     37  25  60 NW18      30.37F WCI  27

$$

REGIONAL REPORTS     COLORADO/ARIZONA

CITY           SKY/WX    TMP DP  RH WIND       PRES   REMARKS
CRAIG, CO      PTCLDY    17  14  88 W3        30.41F
GRAND JUNCTION PTCLDY    26  22  84 N3        30.37R
RIFLE          CLEAR     27  22  81 SE7       30.40F WCI  19
MONTROSE       PTCLDY    25  20  81 S8        30.39S WCI  16
CORTEZ         CLEAR     24  20  84 NE8       30.36R WCI  15
PAGE, AZ       NOT AVBL
GRAND CANYON   CLEAR     28  20  71 E3        30.35F
KINGMAN        PTCLDY    44  25  47 E7        30.20S
FLAGSTAFF      CLEAR     40  21  46 E6        30.34F

$$

REGIONAL REPORTS    NEVADA/IDAHO/WYOMING

CITY           SKY/WX    TMP DP  RH WIND       PRES   REMARKS
LAS VEGAS, NV  MOCLDY    56  33  42 S7        30.14S
ELY            CLEAR     28  23  81 S9        30.42F WCI  19
ELKO           CLEAR     31  28  89 CALM      30.40R
POCATELLO, ID  FOG       30  30 100 CALM      30.45S VSB 1/4
BURLEY         FOG       30  29  96 E12       30.40R VSB 1/2 WCI  20
EVANSTON, WY   PTCLDY    29  26  89 E5        30.42S WCI  24
ROCK SPRINGS   CLEAR     35  27  72 W3        30.37F
KEMMERER       CLEAR     32  30  93 CALM      30.41R

$$



USA.gov is the U.S. government's official web portal to all federal, state and local government web resources and services.